Regional Weather Roundup
Issued by NWS Goodland, KS

Home | Current Version | Previous Version | Text Only | Print | Product List | Glossary On
Versions: 1 2 3 4 5 6 7 8 9 10 11 12 13 14 15 16 17 18 19 20 21 22 23 24 25 26 27 28 29 30 31 32 33 34 35 36 37 38 39 40 41 42 43 44 45 46 47 48 49 50
000
ASUS43 KGLD 281108
RWRGLD

GOODLAND FORECAST AREA HOURLY WEATHER ROUNDUP
NATIONAL WEATHER SERVICE GOODLAND KS
500 AM MDT THU MAY 28 2015

...OFFICIAL OBSERVATIONS...

CITY           SKY/WX    TMP DP  RH WIND       PRES   REMARKS
GOODLAND KS    CLOUDY    56  55  97 SW10      30.02S
HILL CITY KS   CLOUDY    57  54  89 E3        30.02S
IMPERIAL NEB   MOCLDY    52  50  93 E6        30.03S
MCCOOK NEB     CLOUDY    54  52  93 E5        30.02S
AKRON CO       MOCLDY    51  51 100 E5        30.04S
BURLINGTON CO  CLOUDY    58  55  90 S22       30.02F
LIMON CO       FOG       45  45 100 CALM      30.08S VSB 1/2
$$

...UNOFFICIAL OBSERVATIONS...

CITY           SKY/WX    TMP DP  RH WIND       PRES   REMARKS
$$


USA.gov is the U.S. government's official web portal to all federal, state and local government web resources and services.